Weather History for Oelwein, IA

Change the Weather History Date:

Sunday, January 6, 2013

  Actual Average Record
Temperature  
Mean Temperature 18 °F -  
Max Temperature 23 °F 23 °F 41 °F (1961)
Min Temperature 12 °F 7 °F -23 °F (1988)
Degree Days  
Heating Degree Days 48    
Moisture  
Dew Point 12 °F    
Average Humidity 81    
Maximum Humidity 93    
Minimum Humidity 68    
Precipitation  
Precipitation 0.00 in - - ()
Sea Level Pressure  
Sea Level Pressure 30.16 in    
Wind  
Wind Speed 12 mph (West)    
Max Wind Speed 20 mph    
Max Gust Speed 23 mph    
Visibility 10 miles    
Events      
Averages and records for this station are not official NWS values.
T = Trace of Precipitation, MM = Missing Value Source: NWS Daily Summary

Daily Weather History Graph

Daily Weather History Graph

Search for Another Location

Airport:

Trip Planner

Search our weather history database for the weather conditions in past years. The results will help you decide how hot, cold, wet, or windy it might be!

Date:

Astronomy

Jan. 06, 2013 Rise Set
Actual Time 7:38 AM CST 4:50 PM CST
Civil Twilight 7:06 AM CST 5:21 PM CST
Nautical Twilight 6:30 AM CST 5:57 PM CST
Astronomical Twilight 5:56 AM CST 6:31 PM CST
Moon 1:49 AM CST (1/6) 12:20 PM CST (1/6)
Length of Visible Light 10h 15m
Length of Day
9h 11m
Waning Crescent, 33% of the Moon is Illuminated
Jan 6
Waning Crescent
Jan 11
New
Jan 18
First Quarter
Jan 26
Full
Feb 3
Last Quarter

Hourly Weather History & Observations

Time (CST) Temp. Windchill Dew Point Humidity Pressure Visibility Wind Dir Wind Speed Gust Speed Precip Events Conditions
12:15 AM 19.4 °F 5.0 °F 14.0 °F 80% 29.98 in 10.0 mi WNW 16.1 mph - N/A   Clear
12:35 AM 17.6 °F 2.2 °F 14.0 °F 86% 29.99 in 10.0 mi WNW 17.3 mph - N/A   Clear
12:55 AM 17.6 °F 1.3 °F 12.2 °F 79% 29.99 in 10.0 mi WNW 19.6 mph - N/A   Clear
1:15 AM 17.6 °F 1.7 °F 12.2 °F 79% 29.99 in 10.0 mi WNW 18.4 mph 23.0 mph N/A   Clear
1:35 AM 15.8 °F -0.2 °F 12.2 °F 86% 29.99 in 10.0 mi WNW 17.3 mph - N/A   Scattered Clouds
1:55 AM 15.8 °F -0.6 °F 10.4 °F 79% 30.01 in 10.0 mi WNW 18.4 mph - N/A   Scattered Clouds
2:15 AM 14.0 °F -2.5 °F 10.4 °F 86% 30.02 in 10.0 mi WNW 17.3 mph - N/A   Clear
2:35 AM 14.0 °F -0.2 °F 10.4 °F 86% 30.03 in 10.0 mi WNW 12.7 mph - N/A   Clear
2:55 AM 14.0 °F -0.8 °F 8.6 °F 79% 30.04 in 10.0 mi WNW 13.8 mph - N/A   Clear
3:15 AM 12.2 °F -2.5 °F 8.6 °F 85% 30.04 in 10.0 mi WNW 12.7 mph - N/A   Clear
3:35 AM 12.2 °F -1.0 °F 8.6 °F 85% 30.04 in 10.0 mi WNW 10.4 mph - N/A   Clear
3:55 AM 12.2 °F -2.5 °F 8.6 °F 85% 30.05 in 10.0 mi WNW 12.7 mph - N/A   Clear
4:15 AM 12.2 °F -1.8 °F 8.6 °F 85% 30.05 in 10.0 mi WNW 11.5 mph - N/A   Clear
4:35 AM 12.2 °F -1.0 °F 8.6 °F 85% 30.06 in 10.0 mi WNW 10.4 mph - N/A   Clear
4:55 AM 12.2 °F -1.0 °F 8.6 °F 85% 30.06 in 10.0 mi WNW 10.4 mph - N/A   Scattered Clouds
5:15 AM 12.2 °F -2.5 °F 10.4 °F 92% 30.07 in 7.0 mi NW 12.7 mph - N/A   Mostly Cloudy
5:35 AM 14.0 °F 0.5 °F 12.2 °F 93% 30.08 in 5.0 mi WNW 11.5 mph - N/A   Overcast
5:55 AM 14.0 °F -2.0 °F 12.2 °F 93% 30.09 in 7.0 mi WNW 16.1 mph - N/A   Overcast
6:15 AM 15.8 °F 2.1 °F 14.0 °F 93% 30.10 in 7.0 mi WNW 12.7 mph - N/A   Overcast
6:35 AM 17.6 °F 4.3 °F 14.0 °F 86% 30.10 in 7.0 mi WNW 12.7 mph - N/A   Overcast
6:55 AM 17.6 °F 3.7 °F 14.0 °F 86% 30.12 in 7.0 mi WNW 13.8 mph - N/A   Overcast
7:15 AM 17.6 °F 4.3 °F 15.8 °F 93% 30.12 in 4.0 mi NW 12.7 mph - N/A   Overcast
7:55 AM 15.8 °F 2.7 °F 14.0 °F 93% 30.15 in 7.0 mi WNW 11.5 mph - N/A   Overcast
8:35 AM 15.8 °F 2.7 °F 12.2 °F 86% 30.16 in 10.0 mi West 11.5 mph - N/A   Scattered Clouds
8:55 AM 14.0 °F -0.8 °F 10.4 °F 86% 30.18 in 10.0 mi West 13.8 mph - N/A   Scattered Clouds
9:15 AM 14.0 °F -0.2 °F 10.4 °F 86% 30.19 in 10.0 mi WNW 12.7 mph - N/A   Clear
9:35 AM 14.0 °F -0.2 °F 10.4 °F 86% 30.20 in 10.0 mi WNW 12.7 mph - N/A   Clear
9:55 AM 15.8 °F 2.7 °F 10.4 °F 79% 30.21 in 10.0 mi WNW 11.5 mph - N/A   Clear
10:15 AM 17.6 °F 3.7 °F 10.4 °F 73% 30.21 in 10.0 mi WNW 13.8 mph - N/A   Clear
10:35 AM 17.6 °F 4.3 °F 10.4 °F 73% 30.22 in 10.0 mi NW 12.7 mph - N/A   Clear
10:55 AM 17.6 °F 5.7 °F 10.4 °F 73% 30.22 in 10.0 mi NW 10.4 mph - N/A   Clear
11:15 AM 19.4 °F 7.2 °F 10.4 °F 68% 30.21 in 10.0 mi NW 11.5 mph - N/A   Clear
11:35 AM 19.4 °F 8.6 °F 10.4 °F 68% 30.21 in 10.0 mi WNW 9.2 mph - N/A   Clear
11:55 AM 19.4 °F 7.9 °F 12.2 °F 74% 30.21 in 10.0 mi West 10.4 mph - N/A   Clear
12:15 PM 21.2 °F 10.9 °F 12.2 °F 68% 30.21 in 10.0 mi West 9.2 mph - N/A   Clear
12:35 PM 21.2 °F 10.9 °F 12.2 °F 68% 30.21 in 10.0 mi WNW 9.2 mph - N/A   Clear
12:55 PM 21.2 °F 10.1 °F 12.2 °F 68% 30.21 in 10.0 mi West 10.4 mph - N/A   Clear
1:15 PM 21.2 °F 10.9 °F 14.0 °F 74% 30.21 in 10.0 mi West 9.2 mph - N/A   Clear
1:35 PM 23.0 °F 11.1 °F 14.0 °F 68% 30.21 in 10.0 mi West 12.7 mph - N/A   Clear
1:55 PM 23.0 °F 12.4 °F 14.0 °F 68% 30.22 in 10.0 mi WNW 10.4 mph - N/A   Clear
2:15 PM 23.0 °F 13.9 °F 14.0 °F 68% 30.22 in 10.0 mi West 8.1 mph - N/A   Clear
2:35 PM 23.0 °F 13.9 °F 14.0 °F 68% 30.23 in 10.0 mi West 8.1 mph - N/A   Clear
3:15 PM 23.0 °F - 14.0 °F 68% 30.23 in 10.0 mi Calm Calm - N/A   Clear
3:35 PM 23.0 °F - 14.0 °F 68% 30.23 in 10.0 mi Calm Calm - N/A   Clear
3:55 PM 23.0 °F - 14.0 °F 68% 30.23 in 10.0 mi Calm Calm - N/A   Clear
4:15 PM 23.0 °F - 14.0 °F 68% 30.23 in 10.0 mi Calm Calm - N/A   Clear
4:35 PM 21.2 °F - 14.0 °F 74% 30.24 in 10.0 mi Calm Calm - N/A   Clear
4:55 PM 19.4 °F 11.5 °F 14.0 °F 80% 30.25 in 10.0 mi WSW 5.8 mph - N/A   Clear
5:15 PM 21.2 °F 14.9 °F 12.2 °F 68% 30.24 in 10.0 mi WSW 4.6 mph - N/A   Clear
6:15 PM 17.6 °F 9.3 °F 10.4 °F 73% 30.24 in 10.0 mi SSW 5.8 mph - N/A   Clear
6:35 PM 15.8 °F 8.6 °F 10.4 °F 79% 30.24 in 10.0 mi South 4.6 mph - N/A   Clear
6:55 PM 14.0 °F 6.5 °F 10.4 °F 86% 30.25 in 10.0 mi South 4.6 mph - N/A   Clear
7:15 PM 14.0 °F 5.1 °F 10.4 °F 86% 30.25 in 10.0 mi SSW 5.8 mph - N/A   Clear
7:35 PM 14.0 °F 5.1 °F 10.4 °F 86% 30.24 in 10.0 mi South 5.8 mph - N/A   Clear
7:55 PM 12.2 °F 2.9 °F 8.6 °F 85% 30.24 in 10.0 mi South 5.8 mph - N/A   Clear
8:15 PM 12.2 °F 1.7 °F 10.4 °F 92% 30.24 in 10.0 mi South 6.9 mph - N/A   Clear
8:35 PM 14.0 °F 5.1 °F 10.4 °F 86% 30.24 in 10.0 mi South 5.8 mph - N/A   Clear
8:55 PM 12.2 °F 0.7 °F 10.4 °F 92% 30.23 in 10.0 mi South 8.1 mph - N/A   Clear
9:15 PM 14.0 °F 2.9 °F 10.4 °F 86% 30.23 in 10.0 mi South 8.1 mph - N/A   Clear
9:35 PM 14.0 °F 2.9 °F 10.4 °F 86% 30.23 in 10.0 mi South 8.1 mph - N/A   Clear
10:35 PM 14.0 °F 2.9 °F 10.4 °F 86% 30.22 in 10.0 mi SSE 8.1 mph - N/A   Clear
10:55 PM 14.0 °F 2.0 °F 12.2 °F 93% 30.21 in 10.0 mi SSE 9.2 mph - N/A   Clear
11:35 PM 15.8 °F 3.4 °F 12.2 °F 86% 30.20 in 10.0 mi SSE 10.4 mph - N/A   Clear
11:55 PM 17.6 °F 5.7 °F 12.2 °F 79% 30.20 in 10.0 mi SSE 10.4 mph - N/A   Clear